DHK868 KCVG-EGNX

Flight info

Callsign DHK868
Flight time N/A
Altitude 31000
Route HAGOL5 PLASH DCT DJB DCT DKK DCT KB03E/N0481F330 DCT 47N060W DCT YYT DCT NICSO/M084F340 DCT 48N050W 50N040W 52N030W 54N020W DCT DOGAL DCT BEXET/N0476F350 DCT DEXEN UY124 DOLOP
Aircraft B77L/H-SDE1E2E3FGHIJ2J3J4J5M1RWXY/LB1D1

Departure

Time 2026-05-05 13:10
Airport Cincinnati Northern Kentucky International Airport (KCVG)

Arrival

Time N/A
Airport East Midlands Airport (EGNX)
Time Latitude Longitude Altitude Speed Heading
2026-05-05 12:36 39.03640 -84.65382 891 ft 0 kts
2026-05-05 12:55 39.03631 -84.65382 891 ft 4 kts 358°
2026-05-05 12:55 39.03609 -84.65380 891 ft 4 kts 357°
2026-05-05 12:55 39.03592 -84.65383 891 ft 3 kts 34°
2026-05-05 12:55 39.03577 -84.65401 891 ft 4 kts 74°
2026-05-05 12:56 39.03574 -84.65434 891 ft 4 kts 89°
2026-05-05 12:56 39.03574 -84.65442 891 ft 0 kts 89°
2026-05-05 12:59 39.03574 -84.65433 891 ft 4 kts 89°
2026-05-05 12:59 39.03574 -84.65394 891 ft 4 kts 89°
2026-05-05 13:00 39.03574 -84.65303 888 ft 7 kts 90°
2026-05-05 13:00 39.03574 -84.65230 891 ft 8 kts 90°
2026-05-05 13:01 39.03583 -84.65025 891 ft 6 kts 60°
2026-05-05 13:01 39.03619 -84.64998 891 ft 6 kts 12°
2026-05-05 13:01 39.03663 -84.64994 891 ft 6 kts
2026-05-05 13:01 39.03706 -84.64993 891 ft 6 kts
2026-05-05 13:02 39.03750 -84.64992 891 ft 6 kts
2026-05-05 13:02 39.03812 -84.64992 891 ft 11 kts
2026-05-05 13:02 39.03888 -84.64992 891 ft 11 kts
2026-05-05 13:02 39.03965 -84.64991 890 ft 11 kts 360°
2026-05-05 13:03 39.04041 -84.64991 890 ft 11 kts
2026-05-05 13:03 39.04118 -84.64991 890 ft 11 kts
2026-05-05 13:03 39.04194 -84.64991 890 ft 11 kts
2026-05-05 13:03 39.04271 -84.64990 890 ft 11 kts
2026-05-05 13:04 39.04347 -84.64990 890 ft 11 kts
2026-05-05 13:04 39.04422 -84.64989 890 ft 11 kts
2026-05-05 13:04 39.04498 -84.64989 890 ft 11 kts
2026-05-05 13:04 39.04575 -84.64989 890 ft 11 kts
2026-05-05 13:05 39.04651 -84.64988 890 ft 11 kts
2026-05-05 13:05 39.04727 -84.64988 890 ft 11 kts
2026-05-05 13:05 39.04803 -84.64988 890 ft 11 kts
2026-05-05 13:05 39.04880 -84.64987 891 ft 11 kts
2026-05-05 13:06 39.04956 -84.64987 891 ft 11 kts
2026-05-05 13:06 39.05032 -84.64987 891 ft 11 kts
2026-05-05 13:06 39.05108 -84.64987 891 ft 11 kts
2026-05-05 13:06 39.05193 -84.64986 891 ft 12 kts
2026-05-05 13:07 39.05280 -84.64986 891 ft 12 kts
2026-05-05 13:07 39.05367 -84.64986 891 ft 12 kts 360°
2026-05-05 13:07 39.05431 -84.64986 891 ft 6 kts
2026-05-05 13:07 39.05473 -84.64985 891 ft 6 kts
2026-05-05 13:08 39.05515 -84.64985 891 ft 7 kts
2026-05-05 13:08 39.05557 -84.64969 890 ft 7 kts 38°
2026-05-05 13:08 39.05574 -84.64914 890 ft 7 kts 84°
2026-05-05 13:08 39.05575 -84.64850 889 ft 7 kts 89°
2026-05-05 13:09 39.05575 -84.64779 886 ft 9 kts 90°
2026-05-05 13:09 39.05559 -84.64698 883 ft 10 kts 127°
2026-05-05 13:09 39.05494 -84.64668 882 ft 10 kts 178°
2026-05-05 13:09 39.05328 -84.64668 881 ft 49 kts 180°
2026-05-05 13:10 39.04701 -84.64670 884 ft 129 kts 180°
2026-05-05 13:10 39.03563 -84.64669 915 ft 191 kts 179°
2026-05-05 13:10 39.02195 -84.64628 1476 ft 199 kts 180°
2026-05-05 13:10 39.00812 -84.64568 2281 ft 201 kts 185°
2026-05-05 13:11 38.99367 -84.64339 2862 ft 219 kts 169°
2026-05-05 13:11 38.97954 -84.63548 3323 ft 228 kts 163°
2026-05-05 13:11 38.96549 -84.62362 3589 ft 257 kts 144°
2026-05-05 13:11 38.95334 -84.60588 4079 ft 275 kts 127°
2026-05-05 13:12 38.94704 -84.58175 4536 ft 294 kts 103°
2026-05-05 13:12 38.94352 -84.55552 5210 ft 299 kts 104°
2026-05-05 13:12 38.93986 -84.52942 6048 ft 296 kts 97°
2026-05-05 13:12 38.94246 -84.50336 6677 ft 304 kts 67°
2026-05-05 13:13 38.95417 -84.48079 7303 ft 306 kts 39°
2026-05-05 13:13 38.97088 -84.46394 7894 ft 307 kts 33°
2026-05-05 13:13 38.98822 -84.44755 8593 ft 310 kts 33°
2026-05-05 13:13 39.00692 -84.43449 9152 ft 305 kts 10°
2026-05-05 13:14 39.02763 -84.42876 9707 ft 307 kts
2026-05-05 13:14 39.04870 -84.42298 10325 ft 312 kts
2026-05-05 13:14 39.07040 -84.41675 10598 ft 329 kts
2026-05-05 13:14 39.09348 -84.41501 10722 ft 337 kts 343°
2026-05-05 13:15 39.11629 -84.42321 10875 ft 350 kts 337°
2026-05-05 13:15 39.14017 -84.43287 11132 ft 368 kts 338°
2026-05-05 13:15 39.16501 -84.44260 11683 ft 377 kts 338°